Cloud_Cover
0 12 14 20 30 34 48 97 100 87 0 0 0 4 4 1 5 4 0 0 0 0 0 0 0 0 0 0 4 4 5 5 33 100 100 43 40 87
0 0 15 28 49 63 64 71 100 100 96 0 2 4 3 5 5 3 5 5 4 0 0 0 0 1 0 0 0 0 0 0 3 66 100 80 93 76
0 0 1 16 18 37 62 61 87 100 100 78 23 6 1 5 4 18 6 5 5 5 5 3 5 1 5 5 3 0 0 0 0 1 100 100 96 100
0 0 1 5 5 30 45 59 94 93 100 100 30 1 12 8 1 5 5 13 5 5 6 5 5 5 5 2 5 5 5 4 0 0 91 80 100 99
5 9 5 48 34 45 49 62 88 98 100 100 100 82 14 9 3 1 5 29 13 41 6 5 5 5 5 5 6 5 5 5 8 52 2 21 54 33
85 54 14 5 5 5 14 55 42 25 73 90 46 10 4 1 4 8 7 5 12 56 21 5 5 5 5 5 32 67 29 0 1 5 6 4 0 0
79 68 12 9 7 5 30 18 8 8 28 33 34 34 75 44 43 23 47 38 11 7 29 65 12 5 5 5 38 78 5 60 9 0 0 0 4 0
11 5 5 5 5 5 5 5 7 45 53 100 100 100 100 100 100 100 100 100 99 51 63 46 46 56 6 5 37 86 100 96 61 18 5 2 0 0
16 35 6 5 14 28 32 6 8 2 5 23 100 100 100 100 100 100 100 100 100 100 100 100 63 40 54 100 92 6 5 70 95 98 100 12 5 5
91 93 82 35 5 5 5 5 5 10 6 15 66 100 100 100 100 100 100 100 98 72 100 100 84 77 56 51 99 81 53 45 75 89 99 100 75 5
100 100 93 45 23 5 5 5 5 5 5 5 6 36 70 20 13 71 100 100 100 100 100 100 92 100 39 59 6 93 99 51 6 19 100 100 100 100
100 100 97 15 5 86 83 5 5 37 75 47 27 6 5 6 65 86 82 100 100 100 100 100 100 100 100 71 5 5 93 100 100 58 98 100 100 92
100 100 82 7 39 12 5 5 6 63 94 32 64 51 92 99 100 98 100 95 100 100 84 100 100 100 100 100 100 96 100 100 100 100 71 100 100 100
100 86 91 93 100 66 16 64 47 100 54 56 8 62 84 97 89 100 94 93 100 98 100 98 100 100 100 100 100 100 99 100 100 100 71 79 95 100
72 99 100 100 100 67 99 98 51 83 91 82 100 99 90 76 95 100 100 100 97 88 100 100 99 100 100 100 100 100 100 100 100 100 100 98 63 71
100 100 100 100 100 99 70 51 100 100 100 100 100 100 98 75 14 29 60 89 30 5 22 96 100 100 100 100 100 100 100 100 100 100 100 100 100 89
100 100 99 100 95 100 100 84 21 56 35 19 58 79 100 100 94 5 5 5 5 5 5 5 65 78 100 100 100 100 100 100 100 100 100 100 100 100
63 96 97 100 100 100 100 100 100 9 37 74 52 27 26 14 11 6 6 21 7 40 47 5 36 40 81 100 100 100 100 100 100 100 100 100 98 100
85 100 100 37 72 52 94 100 100 100 100 100 100 100 99 81 99 90 41 22 59 81 71 89 99 96 89 99 97 84 100 100 100 100 100 100 100 100
100 100 100 100 100 5 5 6 64 61 99 100 100 100 100 100 92 78 87 94 98 100 100 99 98 100 100 97 94 99 100 100 100 100 100 100 100 100
100 100 100 46 6 5 5 34 51 59 93 100 100 100 94 99 100 100 99 100 100 100 100 100 100 100 100 100 100 100 100 83 100 100 100 100 100 100
91 85 78 22 7 7 5 7 56 79 92 100 100 100 93 66 97 99 100 100 96 100 98 99 92 100 100 100 100 100 58 100 100 100 100 93 91 92
6 7 6 18 28 46 35 53 76 90 86 100 100 98 91 88 100 100 80 100 93 95 100 96 100 100 100 100 100 99 38 98 100 100 100 100 100 100